Tracking 30105 objects as of 25-Jan-2025
HD Live streaming from Space Station
objects crossing your sky now

STARLINK-2372

Track STARLINK-2372 now!
10-day predictions
STARLINK-2372 is classified as:


NORAD ID: 47912
Int'l Code: 2021-021BE
Perigee: 373.0 km
Apogee: 375.1 km
Inclination: 53.1 °
Period: 91.9 minutes
Semi major axis: 6745 km
RCS: Unknown
Launch date: March 14, 2021
Source: United States (US)
Launch site: AIR FORCE EASTERN TEST RANGE (AFETR)
Your satellite tracking list
Your tracking list is empty




NASA's NSSDC Master Catalog

Two Line Element Set (TLE):
1 47912U 21021BE  25024.83334491  .00189082  00000-0  16959-2 0  9997
2 47912  53.0504 282.1355 0001526 164.1698 155.3994 15.67195482214435
Source of the keplerian elements: AFSPC